contact:dominique.lefevre@mio.osupytheas.fr, maurice.libes@osupytheas.fr
Project:EMSO Ligure-ouest http://www.emso-fr.org/EMSO-France
Sensor Aquadopp, line 13 Serial AQD14315 
DOI : "https://doi.org/10.17882/74513; https://doi.org/10.17882/83244" 
Title:EMSO Ligure Ouest : Data ligne ALBATROSS capteur AQUADOPP - deploiement 2021
Id,Date,Profondeur,Latitude,Longitude,X_East,Y_North,Z_Up,Amplitude_X,Amplitude_Y,Amplitude_Z,Batterie,SoundSpeed,Heading,Pitch,Roll,Pressure,Temperature,Speed,Direction
, , m, degrees North, degrees East, m.s-1, m.s-1,m.s-1, 1, 1, 1, Volt, m.s-1, degree, degree, degree, dbar, degree_C, m.s-1, degree
11,2021-12-15T21:30:00,2200.0,42.79,6.0312,0.055,0.021,0.008,53.0,56.0,59.0,12.6,1504.3,71.6,-0.3,0.1,2193.089,13.17,0.058,69.1
11,2021-12-15T22:00:00,2200.0,42.79,6.0312,0.056,0.01,0.016,53.0,56.0,57.0,12.6,1504.3,87.4,-0.6,0.3,2193.025,13.17,0.056,79.9
11,2021-12-15T22:30:00,2200.0,42.79,6.0312,0.039,0.027,0.003,54.0,57.0,58.0,12.6,1504.3,62.3,-0.3,0.1,2193.086,13.17,0.047,55.3
11,2021-12-15T23:00:00,2200.0,42.79,6.0312,0.042,0.016,0.003,55.0,59.0,58.0,12.6,1504.3,64.2,0.0,0.1,2193.052,13.17,0.044,69.1
11,2021-12-15T23:30:00,2200.0,42.79,6.0312,0.055,0.036,0.007,53.0,58.0,62.0,12.6,1504.3,52.4,-0.4,0.0,2192.997,13.17,0.065,56.8
11,2021-12-16T00:00:00,2200.0,42.79,6.0312,0.052,0.014,0.018,53.0,58.0,57.0,12.6,1504.3,53.0,-0.1,0.1,2193.02,13.17,0.053,74.9
11,2021-12-16T00:30:00,2200.0,42.79,6.0312,0.057,0.031,0.013,55.0,58.0,58.0,12.6,1504.3,47.5,-0.2,0.0,2193.036,13.17,0.064,61.5
11,2021-12-16T01:00:00,2200.0,42.79,6.0312,0.067,0.023,0.007,55.0,59.0,59.0,12.6,1504.3,49.1,-0.4,0.4,2193.047,13.17,0.07,71.1
11,2021-12-16T01:30:00,2200.0,42.79,6.0312,0.068,0.011,0.014,53.0,56.0,58.0,12.6,1504.3,51.4,-0.5,-0.1,2193.052,13.17,0.068,80.8
11,2021-12-16T02:00:00,2200.0,42.79,6.0312,0.08,0.018,-0.008,53.0,56.0,57.0,12.6,1504.3,39.2,-0.3,0.0,2193.092,13.17,0.081,77.3
11,2021-12-16T02:30:00,2200.0,42.79,6.0312,0.08,0.002,0.023,53.0,55.0,57.0,12.6,1504.3,42.8,0.1,0.1,2193.107,13.17,0.08,88.6
11,2021-12-16T03:00:00,2200.0,42.79,6.0312,0.067,-0.004,0.005,52.0,55.0,57.0,12.6,1504.3,54.5,-1.1,0.0,2193.144,13.17,0.067,93.4
11,2021-12-16T03:30:00,2200.0,42.79,6.0312,0.059,-0.007,0.019,53.0,55.0,56.0,12.5,1504.3,54.4,-0.9,0.1,2193.11,13.17,0.059,96.8
11,2021-12-16T04:00:00,2200.0,42.79,6.0312,0.046,-0.002,0.0,54.0,55.0,57.0,12.6,1504.3,56.4,-0.2,0.2,2193.163,13.17,0.046,92.5
11,2021-12-16T04:30:00,2200.0,42.79,6.0312,0.049,-0.007,0.012,51.0,57.0,55.0,12.6,1504.3,55.0,-0.3,0.2,2193.211,13.17,0.049,98.1
11,2021-12-16T05:00:00,2200.0,42.79,6.0312,0.051,-0.003,0.006,52.0,55.0,54.0,12.6,1504.3,53.2,-0.4,0.0,2193.138,13.17,0.051,93.4
11,2021-12-16T05:30:00,2200.0,42.79,6.0312,0.033,0.013,0.021,51.0,55.0,56.0,12.5,1504.3,59.6,-0.3,0.3,2193.187,13.17,0.035,68.5
11,2021-12-16T06:00:00,2200.0,42.79,6.0312,0.041,0.019,0.007,51.0,54.0,56.0,12.6,1504.3,60.6,-0.7,0.1,2193.183,13.17,0.045,65.1
11,2021-12-16T06:30:00,2200.0,42.79,6.0312,0.024,0.021,-0.002,51.0,54.0,56.0,12.6,1504.3,60.7,-0.5,-0.1,2193.139,13.17,0.031,48.8
11,2021-12-16T07:00:00,2200.0,42.79,6.0312,0.03,0.006,0.013,53.0,54.0,58.0,12.6,1504.3,61.6,-0.4,0.1,2193.18,13.17,0.03,78.7
11,2021-12-16T07:30:00,2200.0,42.79,6.0312,0.042,0.028,0.009,52.0,53.0,55.0,12.6,1504.3,59.3,-0.3,-0.1,2193.203,13.17,0.05,56.3
11,2021-12-16T08:00:00,2200.0,42.79,6.0312,0.038,0.03,0.031,51.0,53.0,57.0,12.6,1504.3,63.5,-0.4,0.3,2193.139,13.17,0.048,51.7
11,2021-12-16T08:30:00,2200.0,42.79,6.0312,0.036,0.023,0.014,52.0,56.0,56.0,12.6,1504.3,57.1,-0.1,0.1,2193.103,13.17,0.042,57.4
11,2021-12-16T09:00:00,2200.0,42.79,6.0312,0.022,0.023,0.021,54.0,56.0,58.0,12.6,1504.3,55.0,-0.2,-0.1,2193.113,13.17,0.031,43.7
11,2021-12-16T09:30:00,2200.0,42.79,6.0312,0.025,0.047,-0.001,53.0,57.0,59.0,12.6,1504.3,49.3,-0.3,-0.2,2193.132,13.17,0.053,28.0
11,2021-12-16T10:00:00,2200.0,42.79,6.0312,0.035,0.028,0.006,52.0,56.0,58.0,12.6,1504.3,64.5,0.2,0.1,2193.108,13.17,0.044,51.3
11,2021-12-16T10:30:00,2200.0,42.79,6.0312,0.042,0.034,0.002,54.0,56.0,55.0,12.6,1504.3,62.2,-0.3,0.1,2193.11,13.17,0.054,51.0
11,2021-12-16T11:00:00,2200.0,42.79,6.0312,0.031,0.034,0.008,54.0,56.0,58.0,12.6,1504.3,64.4,0.0,0.1,2193.089,13.17,0.046,42.4
11,2021-12-16T12:00:00,2200.0,42.79,6.0312,0.05,0.04,-0.027,56.0,59.0,61.0,12.6,1504.3,60.0,-0.3,0.1,2193.073,13.17,0.064,51.3
11,2021-12-16T12:30:00,2200.0,42.79,6.0312,0.044,0.034,-0.014,53.0,56.0,56.0,12.5,1504.3,56.3,-0.5,-0.2,2193.058,13.17,0.055,52.3
11,2021-12-16T13:00:00,2200.0,42.79,6.0312,0.047,0.035,-0.006,53.0,56.0,56.0,12.6,1504.3,55.4,-0.2,0.0,2193.072,13.17,0.058,53.3
11,2021-12-16T13:30:00,2200.0,42.79,6.0312,0.036,0.04,-0.005,52.0,56.0,56.0,12.6,1504.3,54.2,0.0,0.1,2193.055,13.17,0.053,42.0
11,2021-12-16T14:00:00,2200.0,42.79,6.0312,0.042,0.029,0.008,54.0,54.0,57.0,12.6,1504.3,59.2,-0.3,-0.2,2193.037,13.17,0.051,55.4
11,2021-12-16T14:30:00,2200.0,42.79,6.0312,0.052,0.035,0.005,52.0,56.0,57.0,12.5,1504.3,42.3,0.0,-0.2,2193.077,13.17,0.062,56.1
11,2021-12-16T15:00:00,2200.0,42.79,6.0312,0.063,0.024,0.01,54.0,56.0,58.0,12.6,1504.3,47.1,-0.4,-0.1,2193.11,13.17,0.067,69.1
11,2021-12-16T15:30:00,2200.0,42.79,6.0312,0.052,0.029,0.005,55.0,57.0,59.0,12.6,1504.3,36.4,-0.7,0.2,2193.137,13.17,0.059,60.9
11,2021-12-16T16:00:00,2200.0,42.79,6.0312,0.047,0.022,0.006,55.0,56.0,58.0,12.6,1504.3,43.1,-0.8,0.3,2193.141,13.17,0.051,64.9
11,2021-12-16T16:30:00,2200.0,42.79,6.0312,0.057,0.018,0.005,55.0,57.0,58.0,12.6,1504.3,38.2,-0.4,0.0,2193.172,13.17,0.059,72.5
11,2021-12-16T17:00:00,2200.0,42.79,6.0312,0.067,0.018,0.024,55.0,58.0,59.0,12.5,1504.3,38.8,-0.2,-0.1,2193.182,13.17,0.069,75.0
11,2021-12-16T17:30:00,2200.0,42.79,6.0312,0.06,0.026,0.016,54.0,58.0,59.0,12.5,1504.3,41.1,-0.4,-0.2,2193.156,13.17,0.065,66.6
11,2021-12-16T18:00:00,2200.0,42.79,6.0312,0.063,0.0,0.015,53.0,56.0,57.0,12.5,1504.3,44.0,-0.5,0.1,2193.171,13.17,0.062,90.0
11,2021-12-16T18:30:00,2200.0,42.79,6.0312,0.05,0.014,0.002,57.0,60.0,62.0,12.6,1504.3,42.7,-0.8,0.0,2193.168,13.17,0.051,74.4
11,2021-12-16T19:00:00,2200.0,42.79,6.0312,0.057,0.012,0.009,56.0,59.0,58.0,12.6,1504.3,44.4,-0.1,0.0,2193.163,13.17,0.058,78.1
11,2021-12-16T19:30:00,2200.0,42.79,6.0312,0.048,0.002,0.027,55.0,57.0,61.0,12.6,1504.3,50.5,-0.6,-0.2,2193.107,13.17,0.048,87.6
11,2021-12-16T20:00:00,2200.0,42.79,6.0312,0.048,0.0,0.009,54.0,59.0,58.0,12.6,1504.3,41.7,-0.5,-0.2,2193.099,13.17,0.048,90.0
11,2021-12-16T20:30:00,2200.0,42.79,6.0312,0.049,0.001,-0.008,55.0,58.0,60.0,12.6,1504.3,41.6,-0.2,-0.1,2193.106,13.17,0.049,88.8
11,2021-12-16T21:00:00,2200.0,42.79,6.0312,0.048,-0.008,0.008,56.0,58.0,60.0,12.5,1504.3,52.5,-0.6,-0.1,2193.086,13.17,0.048,99.5
